TimeCDT,TemperatureF,Dew PointF,Humidity,Sea Level PressureIn,VisibilityMPH,Wind Direction,Wind SpeedMPH,Gust SpeedMPH,PrecipitationIn,Events,Conditions,WindDirDegrees,DateUTC
12:53 AM,48.9,46.9,93,30.08,10.0,SSE,8.1,-,N/A,,Clear,150,2012-10-10 05:53:00
1:53 AM,51.1,50.0,96,30.09,10.0,Calm,Calm,-,N/A,,Overcast,0,2012-10-10 06:53:00
2:53 AM,52.0,51.1,97,30.08,10.0,Calm,Calm,-,N/A,,Overcast,0,2012-10-10 07:53:00
3:53 AM,53.1,52.0,96,30.09,10.0,Calm,Calm,-,N/A,,Overcast,0,2012-10-10 08:53:00
4:53 AM,54.0,53.1,97,30.11,10.0,Calm,Calm,-,N/A,,Overcast,0,2012-10-10 09:53:00
5:53 AM,54.0,53.1,97,30.12,10.0,Calm,Calm,-,N/A,,Overcast,0,2012-10-10 10:53:00
6:53 AM,53.1,52.0,96,30.14,9.0,Calm,Calm,-,N/A,,Mostly Cloudy,0,2012-10-10 11:53:00
8:53 AM,60.1,55.9,86,30.16,10.0,Calm,Calm,-,N/A,,Overcast,0,2012-10-10 13:53:00
9:53 AM,63.0,55.0,75,30.17,10.0,West,3.5,-,N/A,,Overcast,270,2012-10-10 14:53:00
10:53 AM,66.9,55.9,68,30.17,10.0,WNW,9.2,-,N/A,,Clear,290,2012-10-10 15:53:00
11:28 AM,68.0,55.4,64,30.19,10.0,NW,9.2,-,N/A,,Mostly Cloudy,320,2012-10-10 16:28:00
11:53 AM,69.1,55.9,63,30.17,10.0,NW,6.9,-,N/A,,Mostly Cloudy,310,2012-10-10 16:53:00
12:53 PM,71.1,57.0,61,30.16,10.0,West,11.5,-,N/A,,Scattered Clouds,260,2012-10-10 17:53:00
1:53 PM,70.0,55.0,59,30.15,10.0,NW,9.2,-,N/A,,Overcast,320,2012-10-10 18:53:00
2:53 PM,71.1,55.0,57,30.14,10.0,NNW,10.4,-,N/A,,Overcast,330,2012-10-10 19:53:00
3:53 PM,68.0,55.0,63,30.15,10.0,NNW,10.4,-,N/A,,Mostly Cloudy,330,2012-10-10 20:53:00
4:53 PM,68.0,53.1,59,30.15,9.0,NW,9.2,-,N/A,,Scattered Clouds,320,2012-10-10 21:53:00
5:53 PM,64.0,53.1,67,30.16,9.0,NW,8.1,-,N/A,,Clear,320,2012-10-10 22:53:00
6:53 PM,55.9,52.0,87,30.18,10.0,NNW,4.6,-,N/A,,Clear,340,2012-10-10 23:53:00
7:53 PM,55.0,52.0,89,30.19,10.0,Calm,Calm,-,N/A,,Clear,0,2012-10-11 00:53:00
8:53 PM,52.0,50.0,93,30.21,10.0,North,3.5,-,N/A,,Clear,10,2012-10-11 01:53:00
9:53 PM,53.1,50.0,89,30.21,10.0,North,4.6,-,N/A,,Clear,10,2012-10-11 02:53:00
10:53 PM,50.0,48.0,93,30.22,10.0,NNE,3.5,-,N/A,,Clear,20,2012-10-11 03:53:00
11:53 PM,48.9,46.9,93,30.23,9.0,Calm,Calm,-,N/A,,Clear,0,2012-10-11 04:53:00